This is the latest recevied weather packets stored in our database for station/object NR6G-5. If no packets are shown the sender has not sent any weather packets the latest 1 day(s).
| Time | Temp. | Humidity | Pressure | Rain* | Wind** | Luminosity | Snow |
|---|---|---|---|---|---|---|---|
| 1778023045 | 16.11° C | 74% | 1014 hPa | 0 mm | 1.79 m/s, 145° | - | - |
| 1778022744 | 16.11° C | 77% | 1014 hPa | 0 mm | 2.24 m/s, 155° | - | - |
| 1778022444 | 16.11° C | 75% | 1014.1 hPa | 0 mm | 2.24 m/s, 156° | - | - |
| 1778022144 | 16.11° C | 75% | 1014.2 hPa | 0 mm | 2.24 m/s, 177° | - | - |
| 1778021844 | 16.11° C | 76% | 1014.2 hPa | 0 mm | 2.24 m/s, 180° | - | - |
| 1778021545 | 16.11° C | 77% | 1014.2 hPa | 0 mm | 2.68 m/s, 163° | - | - |
| 1778021245 | 16.11° C | 76% | 1014.4 hPa | 0 mm | 2.68 m/s, 160° | - | - |
| 1778020945 | 16.11° C | 77% | 1014.4 hPa | 0 mm | 2.68 m/s, 153° | - | - |
| 1778020644 | 16.11° C | 79% | 1014.4 hPa | 0 mm | 3.13 m/s, 173° | - | - |
| 1778020348 | 15.56° C | 79% | 1014.4 hPa | 0 mm | 3.58 m/s, 167° | - | - |
| 1778020044 | 15.56° C | 79% | 1014.5 hPa | 0 mm | 3.13 m/s, 168° | - | - |
| 1778019748 | 15.56° C | 80% | 1014.5 hPa | 0 mm | 4.02 m/s, 176° | - | - |
| 1778019444 | 15.56° C | 79% | 1014.5 hPa | 0 mm | 3.58 m/s, 177° | - | - |
| 1778019147 | 15.56° C | 80% | 1014.5 hPa | 0 mm | 2.68 m/s, 183° | - | - |
| 1778018845 | 15.56° C | 80% | 1014.5 hPa | 0 mm | 3.58 m/s, 165° | - | - |
| 1778018546 | 16.11° C | 80% | 1014.6 hPa | 0 mm | 3.13 m/s, 182° | - | - |
| 1778018247 | 16.11° C | 77% | 1014.5 hPa | 0 mm | 4.02 m/s, 197° | - | - |
| 1778017944 | 16.11° C | 81% | 1014.6 hPa | 0 mm | 3.58 m/s, 181° | - | - |
| 1778017645 | 16.11° C | 79% | 1014.6 hPa | 0 mm | 4.02 m/s, 186° | - | - |
| 1778017344 | 16.11° C | 80% | 1014.8 hPa | 0 mm | 4.02 m/s, 181° | - | - |
| 1778017045 | 16.11° C | 79% | 1014.8 hPa | 0 mm | 4.02 m/s, 180° | - | - |
| 1778016749 | 16.11° C | 81% | 1014.9 hPa | 0 mm | 4.02 m/s, 185° | - | - |
| 1778016445 | 15.56° C | 83% | 1014.9 hPa | 0 mm | 3.58 m/s, 193° | - | - |
| 1778016144 | 15.56° C | 82% | 1014.9 hPa | 0 mm | 3.58 m/s, 188° | - | - |
| 1778015852 | 15.56° C | 83% | 1015 hPa | 0 mm | 3.58 m/s, 177° | - | - |
* Rain latest hour (hover to see other rain measurements)
** Current wind speed in m/s (hover to see current wind gust speed)